Погода в Татарском Калмаюре

Россия / Ульяновская область     54°11′01″N   48°58′08″E
темп.,
°C
ветер,
м/с
пор.,
м/с
влажн.,
%
обл.,
%
осадки,
мм/ч
давл.,
гПа
погр.,
м
13 мая, чт
чт1301:00+16вюв495959 0.0 1024146
04:00+14вюв49615 0.0 1024128
07:00+16вюв5116535 0.0 1024246
10:00+21вюв7115091 0.0 1023629
13:00+23юв7949100 0.0 1022944
16:00+25юв71350100 0.0 10211525
19:00+22юв61360100 0.0 1020345
22:00+18юв41168100 0.1 1021203
14 мая, пт
пт1401:00+16юв41167100 0.2 1020168
04:00+14ююв4107282 0.5 1021158
07:00+16ююв377397 0.0 1022159
10:00+21ююв575899 0.0 1022347
13:00+25ю6944100 0.0 1022690
16:00+25ююв61145100 0.0 1021820
19:00+22ююв512560 0.0 1020299
22:00+18ююв5146099 0.0 1021256
15 мая, сб
сб1501:00+16ююв41158100 0.0 1021175
04:00+15ююв41058100 0.0 1021145
07:00+17ююв5106249 0.0 1021178
10:00+22ю69475 0.0 1021354
13:00+26ю710355 0.0 1021881
16:00+27ю593562 0.0 10201443
19:00+23ююв48545 0.0 1019127
22:00+19ююв410547 0.0 1019125
16 мая, вс
вс1601:00+17ююв495773 0.0 1019121
04:00+16ююв496535 0.0 1019121
07:00+18ююв5116645 0.0 1019209
10:00+24ю611485 0.0 1019431
13:00+27ю79398 0.0 10181104
16:00+29ююз61035100 0.0 10172674
19:00+24ююз3453100 0.0 101760
22:00+20ююз2250100 0.0 101712
17 мая, пн
пн1701:00+19ююв2255100 0.0 101714
04:00+17ю1257100 0.0 101811
07:00+19ю34629 0.0 101899
10:00+25ююз34455 0.0 1018457
13:00+28ю34408 0.0 1018724
16:00+29ююв333549 0.0 10171591
19:00+23вюв354681 0.1 101756
22:00+19сз346214 1.1 101839